KC3HNY-13 Weather Reports


Display with metric or nautical units.
time (UTC)temp
F
wind
direction
speed
MPH
gust
MPH
rain 1hr
in
rain 24hr
in
rain mn
in
humidity
%
barometer
mb
20191017222902 54 0.0 0.0 0.00 0.00 0.00 57 1007.8
20191017221925 54 0.0 0.0 0.00 0.00 0.00 56 1007.5
20191017220949 55 0.0 0.0 0.00 0.00 0.00 56 1007.6
20191017220015 55 0.0 0.0 0.00 0.00 0.00 54 1007.7
20191017215038 56 0.0 0.0 0.00 0.00 0.00 54 1007.6
20191017214102 56 0.0 0.0 0.00 0.00 0.00 52 1007.4
20191017213126 57 0.0 0.0 0.00 0.00 0.00 53 1007.5
20191017212151 57 0.0 0.0 0.00 0.00 0.00 52 1007.3
20191017211214 57 0.0 0.0 0.00 0.00 0.00 52 1007.2
20191017210237 56 0.0 0.0 0.00 0.00 0.00 53 1007.1
20191017205301 56 0.0 0.0 0.00 0.00 0.00 54 1007.0
20191017204324 55 0.0 0.0 0.00 0.00 0.00 55 1006.9
20191017203349 56 0.0 0.0 0.00 0.00 0.00 55 1006.9
20191017202413 56 0.0 0.0 0.00 0.00 0.00 54 1006.8
20191017201436 56 0.0 0.0 0.00 0.00 0.00 55 1006.5
20191017200501 56 0.0 0.0 0.00 0.00 0.00 55 1006.5
20191017195524 56 0.0 0.0 0.00 0.00 0.00 55 1006.5
20191017194548 56 0.0 0.0 0.00 0.00 0.00 54 1006.2
20191017193611 57 0.0 0.0 0.00 0.00 0.00 53 1006.2
20191017192635 57 0.0 0.0 0.00 0.00 0.00 53 1006.0
20191017191659 57 0.0 0.0 0.00 0.00 0.00 53 1006.0
20191017190722 56 0.0 0.0 0.00 0.00 0.00 54 1005.9
20191017185748 56 0.0 0.0 0.00 0.00 0.00 53 1006.0
20191017184810 56 0.0 0.0 0.00 0.00 0.00 54 1006.2
20191017183834 56 0.0 0.0 0.00 0.00 0.00 53 1006.1
20191017182858 56 0.0 0.0 0.00 0.00 0.00 53 1006.0
20191017181922 56 0.0 0.0 0.00 0.00 0.00 53 1006.1
20191017180946 57 0.0 0.0 0.00 0.00 0.00 52 1006.2
20191017180012 58 0.0 0.0 0.00 0.00 0.00 51 1006.0
20191017175038 59 0.0 0.0 0.00 0.00 0.00 48 1005.8
20191017174101 59 0.0 0.0 0.00 0.00 0.00 48 1005.5
20191017173124 59 0.0 0.0 0.00 0.00 0.00 50 1005.5
20191017172147 58 0.0 0.0 0.00 0.00 0.00 51 1005.3
20191017171210 58 0.0 0.0 0.00 0.00 0.00 51 1005.7
20191017170233 57 0.0 0.0 0.00 0.00 0.00 52 1005.6
20191017165256 56 0.0 0.0 0.00 0.00 0.00 53 1005.6
20191017164320 56 0.0 0.0 0.00 0.00 0.00 55 1005.9
20191017163344 56 0.0 0.0 0.00 0.00 0.00 54 1005.8
20191017162409 57 0.0 0.0 0.00 0.00 0.00 53 1005.7
20191017161432 58 0.0 0.0 0.00 0.00 0.00 52 1005.2
20191017160459 58 0.0 0.0 0.00 0.00 0.00 51 1005.0
20191017155521 59 0.0 0.0 0.00 0.00 0.00 50 1005.0
20191017154547 59 0.0 0.0 0.00 0.00 0.00 50 1004.7
20191017153609 59 0.0 0.0 0.00 0.00 0.00 51 1004.6
20191017152635 59 0.0 0.0 0.00 0.00 0.00 50 1004.4
20191017151657 59 0.0 0.0 0.00 0.00 0.00 51 1004.2
20191017150721 59 0.0 0.0 0.00 0.00 0.00 52 1004.3
20191017145744 59 0.0 0.0 0.00 0.00 0.00 52 1004.3
20191017144807 58 0.0 0.0 0.00 0.00 0.00 52 1004.1
20191017143834 58 0.0 0.0 0.00 0.00 0.00 52 1004.0
20191017142854 58 0.0 0.0 0.00 0.00 0.00 53 1004.1
20191017141917 57 0.0 0.0 0.00 0.00 0.00 54 1003.6
20191017140941 56 0.0 0.0 0.00 0.00 0.00 56 1004.1
20191017140003 55 0.0 0.0 0.00 0.00 0.00 56 1004.2
20191017135027 54 0.0 0.0 0.00 0.00 0.00 58 1004.4
20191017134051 54 0.0 0.0 0.00 0.00 0.00 59 1004.4
20191017133116 54 0.0 0.0 0.00 0.00 0.00 59 1004.6
20191017132139 53 0.0 0.0 0.00 0.00 0.00 60 1004.6
20191017131201 53 0.0 0.0 0.00 0.00 0.00 60 1004.4
20191017130226 53 0.0 0.0 0.00 0.00 0.00 60 1004.3
20191017125248 52 0.0 0.0 0.00 0.00 0.00 62 1004.2
20191017124312 52 0.0 0.0 0.00 0.00 0.00 62 1004.2
20191017123336 52 0.0 0.0 0.00 0.00 0.00 62 1004.2
20191017122400 52 0.0 0.0 0.00 0.00 0.00 63 1004.0
20191017121425 52 0.0 0.0 0.00 0.00 0.00 62 1004.1
20191017120449 52 0.0 0.0 0.00 0.00 0.00 63 1003.9
20191017115511 52 0.0 0.0 0.00 0.00 0.00 63 1003.8
20191017114535 51 0.0 0.0 0.00 0.00 0.00 63 1003.8
20191017113559 51 0.0 0.0 0.00 0.00 0.00 63 1003.7
20191017112624 51 0.0 0.0 0.00 0.00 0.00 63 1003.8
20191017111648 51 0.0 0.0 0.00 0.00 0.00 63 1003.6
20191017110712 51 0.0 0.0 0.00 0.00 0.00 63 1003.4
20191017105736 51 0.0 0.0 0.00 0.00 0.00 64 1003.4
20191017104800 51 0.0 0.0 0.00 0.00 0.00 64 1003.3
20191017103824 52 0.0 0.0 0.00 0.00 0.00 64 1003.3
20191017102849 51 0.0 0.0 0.00 0.00 0.00 65 1003.1
20191017101912 51 0.0 0.0 0.00 0.00 0.00 64 1003.0
20191017100938 51 0.0 0.0 0.00 0.00 0.00 65 1002.9
20191017100002 51 0.0 0.0 0.00 0.00 0.00 65 1002.8
20191017095025 52 0.0 0.0 0.00 0.00 0.00 66 1002.6
20191017094050 52 0.0 0.0 0.00 0.00 0.00 65 1002.6
20191017093113 51 0.0 0.0 0.00 0.00 0.00 65 1002.5
20191017092138 52 0.0 0.0 0.00 0.00 0.00 65 1002.3
20191017091201 52 0.0 0.0 0.00 0.00 0.00 65 1002.2
20191017090227 52 0.0 0.0 0.00 0.00 0.00 64 1002.0
20191017085251 52 0.0 0.0 0.00 0.00 0.00 64 1002.1
20191017084314 52 0.0 0.0 0.00 0.00 0.00 65 1002.2
20191017083338 52 0.0 0.0 0.00 0.00 0.00 64 1001.8
20191017082401 52 0.0 0.0 0.00 0.00 0.00 64 1001.5
20191017081426 52 0.0 0.0 0.00 0.00 0.00 65 1001.5
20191017080452 52 0.0 0.0 0.00 0.00 0.00 65 1001.4
20191017075514 52 0.0 0.0 0.00 0.00 0.00 65 1001.4
20191017074537 52 0.0 0.0 0.00 0.00 0.00 65 1001.0
20191017073601 52 0.0 0.0 0.00 0.00 0.00 65 1001.2
20191017072625 52 0.0 0.0 0.00 0.00 0.00 66 1001.6
20191017071649 52 0.0 0.0 0.00 0.00 0.00 65 1001.5
20191017070713 51 0.0 0.0 0.00 0.00 0.00 67 1001.6
20191017065736 51 0.0 0.0 0.00 0.00 0.00 68 1001.9
20191017064800 51 0.0 0.0 0.00 0.00 0.00 67 1001.8
20191017063825 51 0.0 0.0 0.00 0.00 0.00 68 1001.8
20191017062849 51 0.0 0.0 0.00 0.00 0.00 67 1002.0
20191017061911 51 0.0 0.0 0.00 0.00 0.00 69 1002.0
20191017060937 51 0.0 0.0 0.00 0.00 0.00 68 1002.0
20191017060000 51 0.0 0.0 0.00 0.00 0.00 69 1002.1
20191017055024 50 0.0 0.0 0.00 0.00 0.00 68 1002.1
20191017054047 50 0.0 0.0 0.00 0.00 0.00 68 1002.0
20191017053113 50 0.0 0.0 0.00 0.00 0.00 69 1002.0
20191017052136 50 0.0 0.0 0.00 0.00 0.00 69 1002.1
20191017051200 50 0.0 0.0 0.00 0.00 0.00 68 1002.2
20191017050225 50 0.0 0.0 0.00 0.00 0.00 68 1002.2
20191017045249 50 0.0 0.0 0.00 0.00 0.00 68 1002.4
20191017044313 50 0.0 0.0 0.00 0.00 0.00 67 1002.2
20191017043336 50 0.0 0.0 0.00 0.00 0.00 68 1002.3
20191017042359 50 0.0 0.0 0.00 0.00 0.00 69 1002.2
20191017041425 50 0.0 0.0 0.00 0.00 0.00 68 1002.1
20191017040450 50 0.0 0.0 0.00 0.00 0.00 68 1002.3
20191017035512 50 0.0 0.0 0.00 0.00 0.00 68 1002.2
20191017034537 50 0.0 0.0 0.00 0.00 0.00 68 1002.1
20191017033601 51 0.0 0.0 0.00 0.00 0.00 67 1002.1
20191017032624 51 0.0 0.0 0.00 0.00 0.00 66 1002.1
20191017031648 51 0.0 0.0 0.00 0.00 0.00 68 1002.1
20191017030713 51 0.0 0.0 0.00 0.00 0.00 66 1001.8
20191017025738 51 0.0 0.0 0.00 0.00 0.00 67 1001.9
20191017024801 51 0.0 0.0 0.00 0.00 0.00 66 1002.0
20191017023826 51 0.0 0.0 0.00 0.00 0.00 68 1002.2
20191017022850 51 0.0 0.0 0.00 0.00 0.00 67 1002.1
20191017021914 51 0.0 0.0 0.00 0.00 0.00 67 1002.2
20191017020936 51 0.0 0.0 0.00 0.00 0.00 66 1002.2
20191017020001 52 0.0 0.0 0.00 0.00 0.00 66 1002.2
20191017015025 52 0.0 0.0 0.00 0.00 0.00 66 1002.2
20191017014049 52 0.0 0.0 0.00 0.00 0.00 66 1002.1
20191017013113 52 0.0 0.0 0.00 0.00 0.00 65 1002.1
20191017012138 53 0.0 0.0 0.00 0.00 0.00 63 1002.0
20191017011201 53 0.0 0.0 0.00 0.00 0.00 67 1001.8
20191017010225 53 0.0 0.0 0.00 0.00 0.00 72 1001.7
20191017005249 53 0.0 0.0 0.00 0.00 0.00 72 1001.6
20191017004312 53 0.0 0.0 0.00 0.00 0.00 74 1001.3
20191017003338 53 0.0 0.0 0.00 0.00 0.00 75 1001.3
20191017002401 52 0.0 0.0 0.00 0.00 0.00 75 1001.1
20191017001424 53 0.0 0.0 0.00 0.00 0.00 77 1001.2
20191017000449 53 0.0 0.0 0.00 0.00 0.00 78 1001.1
20191016235513 53 0.0 0.0 0.00 0.00 0.00 78 1001.3
20191016234539 53 0.0 0.0 0.00 0.00 0.00 78 1001.1
20191016233603 53 0.0 0.0 0.00 0.00 0.00 77 1001.1
20191016232626 53 0.0 0.0 0.00 0.00 0.00 76 1001.1
20191016231650 53 0.0 0.0 0.00 0.00 0.00 77 1001.0
20191016230715 53 0.0 0.0 0.00 0.00 0.00 76 1001.0
20191016225739 54 0.0 0.0 0.00 0.00 0.00 77 1000.9
20191016224803 54 0.0 0.0 0.00 0.00 0.00 78 1001.0
20191016223828 54 0.0 0.0 0.00 0.00 0.00 79 1000.9